Regional Weather Roundup
Issued by NWS

Home | Current Version | Previous Version | Text Only | Print | Product List | Glossary On
Versions: 1 2 3 4 5 6 7 8 9 10 11 12 13 14 15 16 17 18 19 20 21 22 23 24 25 26 27 28 29 30 31 32 33 34 35 36 37 38 39 40 41 42 43 44 45 46 47 48 49 50
000
ASUS46 KSTO 240709
RWRCA

NORTHERN AND CENTRAL CA REGIONAL WEATHER ROUNDUP
NATIONAL WEATHER SERVICE SACRAMENTO CA
1200 AM PDT WED MAY 24 2017

NOTE: FAIR INDICATES FEW OR NO CLOUDS BELOW 12,000 FEET WITH NO
SIGNIFICANT WEATHER AND/OR OBSTRUCTIONS TO VISIBILITY.

CAZ001-003-240800-
NORTHWEST AREA

CITY           SKY/WX    TMP DP  RH WIND       PRES   REMARKS
CRESCENT CITY  PTCLDY    53  50  89 S7        29.95R
ARCATA         NOT AVBL
SHELTER COVE   NOT AVBL
UKIAH          CLEAR     63  52  67 S3        29.87F
$$

CAZ006-505>513-240800-
BAY AREA

CITY           SKY/WX    TMP DP  RH WIND       PRES   REMARKS
SANTA ROSA     CLOUDY    51  49  92 S6        29.91S
SAN RAFAEL     N/A       58  MM  MM MISG
NAPA           CLEAR     54  51  90 W7        29.91R
CONCORD        CLEAR     59  49  69 W7        29.88F
OAKLAND CITY   N/A      MM  MM  MM MISG
OAKLAND        MOCLDY    56  53  90 NW8       29.93F
SAN FRAN CITY  N/A       53  MM  95 MISG
SAN FRAN ARPT  PTCLDY    54  50  86 NW13      29.92F
LIVERMORE      CLEAR     60  49  66 W5        29.88F
HAYWARD        CLEAR     56  48  74 NW5       29.92F
REDWOOD CITY   N/A       58  MM  83 MISG
MOFFETT ARPT   MOCLDY    58  55  90 VRB5      29.92F
SAN JOSE ARPT  PTCLDY    59  55  87 NW7       29.92S
$$
CAZ034-037-514>518-240800-
CENTRAL COAST

CITY           SKY/WX    TMP DP  RH WIND       PRES   REMARKS
WATSONVILLE    CLOUDY    54  54 100 CALM      29.94S
SALINAS        CLOUDY    55  51  86 W3        29.93F
MONTEREY       CLOUDY    54  52  93 NW3       29.94F
PT PIEDRAS BLS NOT AVBL
SAN LUIS OBISP CLOUDY    55  52  89 NW5       29.94S
SANTA MARIA    CLOUDY    53  53 100 CALM      29.94S FOG
$$
CAZ015-016-240800-
NORTHERN SACRAMENTO VALLEY

CITY           SKY/WX    TMP DP  RH WIND       PRES   REMARKS
REDDING        CLEAR     75  58  55 N3        29.79S
RED BLUFF      CLEAR     71  60  68 CALM      29.78F
OROVILLE       CLEAR     80  55  42 SE7       29.81S
$$
CAZ016>018-240800-
SOUTHERN SACRAMENTO VALLEY

CITY           SKY/WX    TMP DP  RH WIND       PRES   REMARKS
AUBURN         CLEAR     72  52  49 E6        29.89F
BEALE AFB      CLEAR     72  56  57 SE7       29.79S
LINCOLN        FAIR      72  54  53 S7        29.81S
MARYSVILLE     CLEAR     74  59  59 SE10      29.80S
PLACERVILLE    FAIR      68  50  52 E7        29.97F
SAC INTL ARPT  CLEAR     65  53  65 SE12      29.81S
MATHER AIRPORT NOT AVBL
DOWNTOWN SAC   N/A       66  MM  MM MISG
SAC EXEC ARPT  CLEAR     63  53  70 S6        29.83S
VACAVILLE      CLEAR     66  50  56 SW10      29.82F
TRAVIS AFB     CLEAR     58  51  77 SW26G33   29.81S
$$
CAZ019>021-240800-
SAN JOAQUIN VALLEY

CITY           SKY/WX    TMP DP  RH WIND       PRES   REMARKS
STOCKTON       CLEAR     66  50  56 NE3       29.83S
MODESTO        CLEAR     75  51  43 N3        29.82S
MERCED         CLEAR     75  53  46 NW6       29.82S
LEMOORE        CLEAR     75  46  35 NW7       29.83S
FRESNO         CLEAR     78  58  49 NW10      29.82S
HANFORD        CLEAR     79  56  45 NW8       29.83R
PORTERVILLE      N/A     72  46  39 SE6       29.84F
BAKERSFIELD    PTCLDY    83  28  13 N9        29.84F
$$
CAZ011-012-071-240800-
NORTHERN MOUNTAINS

CITY           SKY/WX    TMP DP  RH WIND       PRES   REMARKS
YREKA          CLEAR     66  52  60 N12       29.96S
MOUNT SHASTA   CLEAR     61  46  57 CALM      29.99F
ALTURAS        CLEAR     64  38  38 W8        30.02F
$$
CAZ011-012-071-240800-
SIERRA NEVADA MTNS

CITY           SKY/WX    TMP DP  RH WIND       PRES   REMARKS
BLUE CANYON    CLEAR     64  43  46 NE3       30.13F
TRUCKEE        CLEAR     46  39  76 CALM      30.17F
TAHOE VLY ARPT CLEAR     51  41  68 S7        30.18F
MAMMOTH LAKES  FAIR      59  32  36 CALM      30.23F
$$




USA.gov is the U.S. government's official web portal to all federal, state and local government web resources and services.